• In Russia
  • List of Countries
  • For 7 days
  • Water Temperature
  • Satellite Maps
  • Weather Map
  • Weather Widgets
  • user-avatar
    Login

    Hourly Weather Mayrhofen

    Today, 23 September, Saturday

    Time Temperature Precipitation Wind Pressure Humidity
    00:00 +3°C° 0 mm 1 mps 619 mmHg 82%
    01:00 +4°C° 0 mm 1 mps 620 mmHg 76%
    02:00 +4°C° 0 mm 1 mps 619 mmHg 77%
    03:00 +4°C° 0 mm 1 mps 619 mmHg 78%
    04:00 +3°C° 0 mm 1 mps 619 mmHg 78%
    05:00 +4°C° 0 mm 1 mps 619 mmHg 77%
    06:00 +4°C° 0 mm 1 mps 619 mmHg 76%
    07:00 +6°C° 0 mm 1 mps 620 mmHg 75%
    08:00 +7°C° 0.1 mm 1 mps 621 mmHg 72%
    09:00 +9°C° 0.1 mm 1 mps 621 mmHg 69%
    10:00 +11°C° 0.1 mm 1 mps 622 mmHg 65%
    11:00 +11°C° 0.2 mm 1 mps 622 mmHg 66%
    12:00 +12°C° 0.2 mm 1 mps 622 mmHg 66%
    13:00 +12°C° 0 mm 1 mps 622 mmHg 65%
    14:00 +12°C° 0.3 mm 1 mps 621 mmHg 69%
    15:00 +11°C° 0.3 mm 1 mps 621 mmHg 72%
    16:00 +11°C° 0.3 mm 1 mps 620 mmHg 75%
    17:00 +9°C° 0.2 mm 1 mps 620 mmHg 81%
    18:00 +7°C° 0.2 mm 1 mps 619 mmHg 87%
    19:00 +6°C° 0.2 mm 1 mps 619 mmHg 92%
    20:00 +6°C° 0.1 mm 1 mps 619 mmHg 93%
    21:00 +5°C° 0.1 mm 1 mps 619 mmHg 94%
    22:00 +5°C° 0.1 mm 1 mps 619 mmHg 95%
    23:00 +5°C° 0 mm 1 mps 619 mmHg 95%

    Tomorrow, 24 September, Sunday

    Time Temperature Precipitation Wind Pressure Humidity
    00:00 +5°C° 0 mm 1 mps 619 mmHg 95%
    01:00 +5°C° 0 mm 1 mps 619 mmHg 95%
    02:00 +5°C° 0.2 mm 1 mps 619 mmHg 95%
    03:00 +5°C° 0.2 mm 1 mps 619 mmHg 95%
    04:00 +5°C° 0.2 mm 1 mps 618 mmHg 95%
    05:00 +5°C° 0.4 mm 1 mps 619 mmHg 95%
    06:00 +5°C° 0.4 mm 1 mps 619 mmHg 95%
    07:00 +5°C° 0.4 mm 1 mps 619 mmHg 95%
    08:00 +6°C° 0.3 mm 1 mps 619 mmHg 90%
    09:00 +7°C° 0.3 mm 1 mps 619 mmHg 86%
    10:00 +8°C° 0.3 mm 1 mps 620 mmHg 81%
    11:00 +9°C° 0.2 mm 1 mps 620 mmHg 78%
    12:00 +8°C° 0.2 mm 2 mps 620 mmHg 76%
    13:00 +9°C° 0.2 mm 2 mps 620 mmHg 73%
    14:00 +8°C° 0.2 mm 2 mps 620 mmHg 74%
    15:00 +8°C° 0.2 mm 2 mps 620 mmHg 76%
    16:00 +8°C° 0.2 mm 2 mps 620 mmHg 77%
    17:00 +8°C° 0.1 mm 1 mps 619 mmHg 82%
    18:00 +6°C° 0.1 mm 1 mps 619 mmHg 86%
    19:00 +5°C° 0.1 mm 1 mps 618 mmHg 91%
    20:00 +4°C° 0 mm 1 mps 618 mmHg 92%
    21:00 +4°C° 0 mm 1 mps 618 mmHg 92%
    22:00 +4°C° 0 mm 1 mps 619 mmHg 93%
    23:00 +3°C° 0 mm 1 mps 618 mmHg 92%

    Day after tomorrow, 25 September, Monday

    Time Temperature Precipitation Wind Pressure Humidity
    00:00 +3°C° 0 mm 1 mps 618 mmHg 92%
    01:00 +3°C° 0 mm 1 mps 618 mmHg 92%
    02:00 +2°C° 0 mm 1 mps 618 mmHg 91%
    03:00 +2°C° 0 mm 1 mps 617 mmHg 89%
    04:00 +2°C° 0 mm 1 mps 617 mmHg 88%
    05:00 +2°C° 0 mm 1 mps 617 mmHg 86%
    06:00 +3°C° 0 mm 1 mps 617 mmHg 85%
    07:00 +3°C° 0 mm 1 mps 618 mmHg 83%
    08:00 +4°C° 0 mm 0 mps 618 mmHg 77%
    09:00 +7°C° 0 mm 0 mps 619 mmHg 70%
    10:00 +9°C° 0 mm 0 mps 620 mmHg 63%
    11:00 +10°C° 0 mm 0 mps 620 mmHg 61%
    12:00 +11°C° 0 mm 1 mps 620 mmHg 58%
    13:00 +12°C° 0 mm 1 mps 620 mmHg 56%
    14:00 +12°C° 0 mm 1 mps 620 mmHg 59%
    15:00 +11°C° 0 mm 1 mps 619 mmHg 61%
    16:00 +11°C° 0 mm 1 mps 619 mmHg 64%
    17:00 +8°C° 0 mm 1 mps 619 mmHg 71%
    18:00 +5°C° 0 mm 0 mps 618 mmHg 77%
    19:00 +3°C° 0 mm 0 mps 618 mmHg 84%
    20:00 +4°C° 0 mm 1 mps 618 mmHg 85%
    21:00 +3°C° 0 mm 1 mps 618 mmHg 86%
    22:00 +3°C° 0 mm 1 mps 618 mmHg 86%
    23:00 +3°C° 0 mm 1 mps 618 mmHg 86%

    26 September, Tuesday

    Time Temperature Precipitation Wind Pressure Humidity
    00:00 +3°C° 0 mm 1 mps 618 mmHg 87%
    01:00 +3°C° 0 mm 1 mps 618 mmHg 87%
    02:00 +3°C° 0 mm 1 mps 618 mmHg 87%
    03:00 +3°C° 0 mm 1 mps 618 mmHg 87%
    04:00 +3°C° 0 mm 1 mps 618 mmHg 87%
    05:00 +3°C° 0 mm 1 mps 618 mmHg 86%
    06:00 +4°C° 0 mm 1 mps 619 mmHg 85%
    07:00 +4°C° 0 mm 1 mps 619 mmHg 84%
    08:00 +6°C° 0 mm 1 mps 620 mmHg 78%
    09:00 +8°C° 0 mm 1 mps 620 mmHg 73%
    10:00 +10°C° 0 mm 1 mps 621 mmHg 67%
    11:00 +11°C° 0 mm 1 mps 621 mmHg 65%
    12:00 +11°C° 0 mm 1 mps 622 mmHg 63%
    13:00 +12°C° 0 mm 1 mps 622 mmHg 61%
    14:00 +12°C° 0 mm 1 mps 622 mmHg 63%
    15:00 +11°C° 0 mm 1 mps 621 mmHg 66%
    16:00 +11°C° 0 mm 1 mps 621 mmHg 68%
    17:00 +9°C° 0 mm 1 mps 621 mmHg 75%
    18:00 +7°C° 0 mm 1 mps 620 mmHg 82%
    19:00 +4°C° 0 mm 0 mps 620 mmHg 89%
    20:00 +5°C° 0 mm 1 mps 620 mmHg 89%
    21:00 +4°C° 0 mm 1 mps 620 mmHg 89%
    22:00 +4°C° 0 mm 1 mps 620 mmHg 89%
    23:00 +4°C° 0 mm 1 mps 620 mmHg 88%

    27 September, Wednesday

    Time Temperature Precipitation Wind Pressure Humidity
    00:00 +4°C° 0 mm 1 mps 620 mmHg 87%
    01:00 +3°C° 0 mm 1 mps 620 mmHg 87%
    02:00 +3°C° 0 mm 1 mps 620 mmHg 86%
    03:00 +3°C° 0 mm 1 mps 620 mmHg 86%
    04:00 +3°C° 0 mm 1 mps 620 mmHg 86%
    05:00 +3°C° 0 mm 1 mps 620 mmHg 84%
    06:00 +4°C° 0 mm 1 mps 620 mmHg 83%
    07:00 +4°C° 0 mm 1 mps 621 mmHg 82%
    08:00 +6°C° 0 mm 1 mps 622 mmHg 75%
    09:00 +9°C° 0 mm 1 mps 623 mmHg 69%
    10:00 +12°C° 0 mm 1 mps 624 mmHg 63%
    11:00 +12°C° 0 mm 1 mps 624 mmHg 61%
    12:00 +13°C° 0 mm 1 mps 624 mmHg 59%
    13:00 +14°C° 0 mm 1 mps 624 mmHg 58%
    14:00 +13°C° 0 mm 1 mps 624 mmHg 60%
    15:00 +13°C° 0 mm 1 mps 624 mmHg 62%
    16:00 +13°C° 0 mm 1 mps 624 mmHg 64%
    17:00 +10°C° 0 mm 1 mps 623 mmHg 73%
    18:00 +7°C° 0 mm 0 mps 622 mmHg 82%
    19:00 +4°C° 0 mm 0 mps 621 mmHg 90%
    20:00 +4°C° 0 mm 0 mps 622 mmHg 90%
    21:00 +5°C° 0 mm 1 mps 622 mmHg 90%
    22:00 +5°C° 0 mm 1 mps 622 mmHg 90%
    23:00 +4°C° 0 mm 1 mps 622 mmHg 89%

    28 September, Thursday

    Time Temperature Precipitation Wind Pressure Humidity
    00:00 +4°C° 0 mm 1 mps 622 mmHg 88%
    01:00 +4°C° 0 mm 1 mps 622 mmHg 87%
    02:00 +4°C° 0 mm 1 mps 622 mmHg 87%
    03:00 +4°C° 0 mm 1 mps 622 mmHg 86%
    04:00 +4°C° 0 mm 1 mps 622 mmHg 85%
    05:00 +4°C° 0 mm 1 mps 622 mmHg 84%
    06:00 +4°C° 0 mm 1 mps 622 mmHg 83%
    07:00 +5°C° 0 mm 1 mps 623 mmHg 82%
    08:00 +8°C° 0 mm 1 mps 624 mmHg 74%
    09:00 +10°C° 0 mm 1 mps 625 mmHg 67%
    10:00 +13°C° 0 mm 1 mps 626 mmHg 59%
    11:00 +14°C° 0 mm 1 mps 626 mmHg 57%
    12:00 +14°C° 0 mm 1 mps 626 mmHg 55%
    13:00 +15°C° 0 mm 1 mps 626 mmHg 53%
    14:00 +15°C° 0 mm 2 mps 626 mmHg 55%
    15:00 +14°C° 0 mm 2 mps 626 mmHg 58%
    16:00 +14°C° 0 mm 2 mps 626 mmHg 60%
    17:00 +10°C° 0 mm 2 mps 625 mmHg 70%
    18:00 +9°C° 0 mm 1 mps 624 mmHg 80%
    19:00 +6°C° 0 mm 1 mps 624 mmHg 90%
    20:00 +6°C° 0 mm 1 mps 623 mmHg 91%
    21:00 +5°C° 0 mm 1 mps 623 mmHg 93%
    22:00 +5°C° 0 mm 1 mps 623 mmHg 94%
    23:00 +5°C° 0 mm 1 mps 623 mmHg 93%
    Show more